DLH410 EDDM-KJFK

Flight info

Callsign DLH410
Flight time N/A
Altitude 34000
Route GIVMI1N/26R GIVMI Y101 INBED DCT REKDI DCT LOHRE DCT ADKUV DCT DENUT L610 KOPUL Q60 OKSAW DCT BIBPE DCT TIGWE DCT FELCA DCT FADZU/N0469F360 DCT NICXI DCT OFSOX DCT SLANY DCT CML DCT LONDU DCT MALOT/M082F360 DCT 54N020W 54N030W 54N040W 53N050W DCT RIKAL/N0480F380 N572A TOPPS DCT ENE PARCH4
Aircraft A346/H-SDE2E3FGHIJ3J4J5M1RWXY/LB1D1

Departure

Time 2026-05-04 18:46
Airport Munich Airport (EDDM)

Arrival

Time N/A
Airport John F. Kennedy International Airport (KJFK)
Time Latitude Longitude Altitude Speed Heading
2026-05-04 17:55 48.35245 11.80041 1476 ft 0 kts 263°
2026-05-04 18:18 48.35245 11.80045 1476 ft 1 kts 263°
2026-05-04 18:18 48.35247 11.80067 1476 ft 2 kts 261°
2026-05-04 18:18 48.35249 11.80089 1476 ft 2 kts 263°
2026-05-04 18:19 48.35253 11.80125 1476 ft 2 kts 248°
2026-05-04 18:19 48.35260 11.80144 1476 ft 2 kts 227°
2026-05-04 18:19 48.35272 11.80159 1476 ft 2 kts 210°
2026-05-04 18:20 48.35286 11.80167 1476 ft 2 kts 192°
2026-05-04 18:20 48.35300 11.80170 1476 ft 1 kts 175°
2026-05-04 18:20 48.35305 11.80169 1476 ft 0 kts 173°
2026-05-04 18:23 48.35301 11.80170 1476 ft 1 kts 173°
2026-05-04 18:23 48.35277 11.80174 1476 ft 5 kts 173°
2026-05-04 18:23 48.35226 11.80184 1476 ft 8 kts 173°
2026-05-04 18:24 48.35167 11.80191 1477 ft 7 kts 188°
2026-05-04 18:24 48.35134 11.80134 1477 ft 8 kts 259°
2026-05-04 18:24 48.35126 11.80034 1477 ft 10 kts 264°
2026-05-04 18:24 48.35120 11.79943 1477 ft 7 kts 264°
2026-05-04 18:25 48.35118 11.79916 1477 ft 0 kts 263°
2026-05-04 18:29 48.35117 11.79915 1477 ft 0 kts 263°
2026-05-04 18:29 48.35116 11.79894 1477 ft 3 kts 263°
2026-05-04 18:29 48.35110 11.79827 1477 ft 8 kts 263°
2026-05-04 18:29 48.35103 11.79731 1478 ft 9 kts 263°
2026-05-04 18:30 48.35097 11.79547 1479 ft 7 kts 295°
2026-05-04 18:30 48.35145 11.79506 1480 ft 9 kts 353°
2026-05-04 18:30 48.35217 11.79492 1480 ft 11 kts 353°
2026-05-04 18:31 48.35300 11.79479 1479 ft 12 kts 354°
2026-05-04 18:31 48.35393 11.79464 1479 ft 14 kts 354°
2026-05-04 18:31 48.35493 11.79446 1479 ft 14 kts 353°
2026-05-04 18:31 48.35598 11.79428 1479 ft 15 kts 354°
2026-05-04 18:32 48.35669 11.79417 1479 ft 3 kts 353°
2026-05-04 18:32 48.35674 11.79416 1478 ft 0 kts 353°
2026-05-04 18:33 48.35688 11.79413 1478 ft 3 kts 353°
2026-05-04 18:34 48.35724 11.79407 1478 ft 6 kts 353°
2026-05-04 18:34 48.35779 11.79397 1478 ft 9 kts 353°
2026-05-04 18:34 48.35845 11.79386 1477 ft 6 kts 355°
2026-05-04 18:34 48.35891 11.79409 1477 ft 7 kts 49°
2026-05-04 18:35 48.35918 11.79477 1476 ft 7 kts 41°
2026-05-04 18:35 48.35974 11.79497 1475 ft 10 kts 356°
2026-05-04 18:35 48.36052 11.79487 1474 ft 11 kts 353°
2026-05-04 18:35 48.36139 11.79471 1474 ft 13 kts 353°
2026-05-04 18:36 48.36192 11.79473 1473 ft 6 kts 27°
2026-05-04 18:36 48.36220 11.79547 1472 ft 10 kts 81°
2026-05-04 18:36 48.36229 11.79666 1471 ft 12 kts 83°
2026-05-04 18:36 48.36240 11.79814 1470 ft 15 kts 83°
2026-05-04 18:37 48.36254 11.79978 1468 ft 16 kts 83°
2026-05-04 18:37 48.36268 11.80158 1466 ft 18 kts 84°
2026-05-04 18:37 48.36281 11.80351 1465 ft 19 kts 84°
2026-05-04 18:37 48.36297 11.80555 1463 ft 20 kts 83°
2026-05-04 18:38 48.36314 11.80768 1462 ft 20 kts 83°
2026-05-04 18:38 48.36331 11.80987 1461 ft 21 kts 83°
2026-05-04 18:38 48.36348 11.81215 1460 ft 22 kts 84°
2026-05-04 18:38 48.36366 11.81446 1459 ft 22 kts 83°
2026-05-04 18:39 48.36383 11.81676 1459 ft 22 kts 83°
2026-05-04 18:39 48.36397 11.81886 1459 ft 15 kts 94°
2026-05-04 18:39 48.36394 11.82048 1459 ft 15 kts 84°
2026-05-04 18:39 48.36406 11.82207 1459 ft 10 kts 83°
2026-05-04 18:40 48.36432 11.82283 1459 ft 8 kts 30°
2026-05-04 18:40 48.36501 11.82291 1459 ft 9 kts 354°
2026-05-04 18:40 48.36557 11.82268 1459 ft 6 kts 329°
2026-05-04 18:40 48.36578 11.82241 1459 ft 0 kts 311°
2026-05-04 18:41 48.36578 11.82242 1459 ft 0 kts 311°
2026-05-04 18:43 48.36581 11.82237 1459 ft 2 kts 311°
2026-05-04 18:43 48.36607 11.82191 1459 ft 9 kts 309°
2026-05-04 18:43 48.36652 11.82108 1459 ft 9 kts 311°
2026-05-04 18:44 48.36681 11.82050 1459 ft 4 kts 286°
2026-05-04 18:44 48.36682 11.82017 1459 ft 4 kts 263°
2026-05-04 18:44 48.36682 11.82013 1459 ft 0 kts 263°
2026-05-04 18:45 48.36681 11.82011 1459 ft 0 kts 263°
2026-05-04 18:45 48.36670 11.81879 1459 ft 39 kts 263°
2026-05-04 18:45 48.36614 11.81156 1460 ft 100 kts 263°
2026-05-04 18:45 48.36514 11.79845 1468 ft 151 kts 264°
2026-05-04 18:46 48.36374 11.78044 1500 ft 189 kts 264°
2026-05-04 18:46 48.36219 11.76054 1859 ft 193 kts 264°
2026-05-04 18:46 48.36078 11.74046 2257 ft 199 kts 265°
2026-05-04 18:46 48.35925 11.71962 2733 ft 202 kts 265°
2026-05-04 18:47 48.35763 11.69883 3190 ft 206 kts 266°
2026-05-04 18:47 48.35847 11.67679 3451 ft 215 kts 292°
2026-05-04 18:47 48.36547 11.65664 3720 ft 226 kts 304°
2026-05-04 18:47 48.37424 11.63599 3973 ft 244 kts 305°
2026-05-04 18:48 48.38374 11.61363 4287 ft 262 kts 304°
2026-05-04 18:48 48.39348 11.59026 4758 ft 272 kts 303°
2026-05-04 18:48 48.40353 11.56584 5424 ft 275 kts 302°
2026-05-04 18:48 48.41357 11.54123 6088 ft 279 kts 302°
2026-05-04 18:49 48.42358 11.51659 6728 ft 282 kts 301°
2026-05-04 18:49 48.43378 11.49143 7404 ft 285 kts 301°
2026-05-04 18:49 48.44408 11.46600 8073 ft 287 kts 300°
2026-05-04 18:49 48.45569 11.44132 8688 ft 292 kts 317°
2026-05-04 18:50 48.47308 11.42619 9287 ft 297 kts 345°
2026-05-04 18:50 48.49327 11.42043 9891 ft 300 kts 350°
2026-05-04 18:50 48.51423 11.41536 10350 ft 308 kts 349°
2026-05-04 18:50 48.53573 11.40992 10610 ft 323 kts 349°
2026-05-04 18:51 48.55822 11.40398 10877 ft 338 kts 349°
2026-05-04 18:51 48.58190 11.39757 11135 ft 353 kts 348°
2026-05-04 18:51 48.60674 11.39077 11461 ft 366 kts 348°
2026-05-04 18:51 48.63191 11.38386 12025 ft 371 kts 348°
2026-05-04 18:52 48.65729 11.37689 12662 ft 373 kts 348°
2026-05-04 18:52 48.68275 11.36918 13268 ft 375 kts 343°
2026-05-04 18:52 48.70719 11.35597 13853 ft 376 kts 333°
2026-05-04 18:52 48.73001 11.33673 14458 ft 376 kts 324°
2026-05-04 18:53 48.75150 11.31502 15039 ft 378 kts 323°
2026-05-04 18:53 48.77342 11.29228 15622 ft 381 kts 323°
2026-05-04 18:53 48.79528 11.26972 16189 ft 384 kts 323°
2026-05-04 18:53 48.81751 11.24702 16920 ft 382 kts 324°
2026-05-04 18:54 48.84016 11.22664 17668 ft 380 kts 330°
2026-05-04 18:54 48.86401 11.20991 18263 ft 384 kts 336°
2026-05-04 18:54 48.88917 11.19616 18791 ft 388 kts 339°
2026-05-04 18:54 48.91463 11.18332 19271 ft 391 kts 339°
2026-05-04 18:55 48.94070 11.17033 19782 ft 394 kts 339°
2026-05-04 18:55 48.99294 11.14407 20767 ft 400 kts 339°
2026-05-04 18:55 49.01932 11.13067 21218 ft 403 kts 339°
2026-05-04 18:56 49.04582 11.11720 21662 ft 406 kts 339°
2026-05-04 18:56 49.07260 11.10354 22120 ft 409 kts 339°
2026-05-04 18:56 49.09962 11.08973 22562 ft 412 kts 339°
2026-05-04 18:56 49.12690 11.07579 23016 ft 414 kts 339°
2026-05-04 18:57 49.15396 11.06198 23452 ft 416 kts 339°
2026-05-04 18:57 49.18185 11.04773 23908 ft 419 kts 339°
2026-05-04 18:57 49.20947 11.03359 24340 ft 421 kts 339°
2026-05-04 18:57 49.23726 11.01929 24764 ft 423 kts 339°
2026-05-04 18:58 49.26515 11.00492 25173 ft 426 kts 339°
2026-05-04 18:58 49.29339 10.99033 25588 ft 428 kts 339°
2026-05-04 18:58 49.32156 10.97578 25982 ft 431 kts 338°
2026-05-04 18:58 49.34966 10.96119 26347 ft 433 kts 337°
2026-05-04 18:59 49.37690 10.94147 26698 ft 431 kts 325°
2026-05-04 18:59 49.40067 10.91418 27066 ft 429 kts 314°
2026-05-04 18:59 49.42084 10.88058 27440 ft 428 kts 306°
2026-05-04 18:59 49.43939 10.84539 27802 ft 430 kts 306°
2026-05-04 19:00 49.45824 10.80908 28156 ft 432 kts 306°
2026-05-04 19:00 49.47690 10.77318 28520 ft 434 kts 306°
2026-05-04 19:00 49.49575 10.73705 28857 ft 436 kts 306°
2026-05-04 19:00 49.51481 10.70062 29177 ft 439 kts 306°
2026-05-04 19:01 49.53408 10.66385 29523 ft 441 kts 306°
2026-05-04 19:01 49.55359 10.62660 29858 ft 443 kts 306°
2026-05-04 19:01 49.57281 10.58988 30133 ft 446 kts 306°
2026-05-04 19:01 49.59261 10.55198 30276 ft 452 kts 306°
2026-05-04 19:02 49.61241 10.51403 30420 ft 457 kts 306°
2026-05-04 19:02 49.63236 10.47572 30612 ft 461 kts 306°
2026-05-04 19:02 49.65221 10.43687 30966 ft 461 kts 304°
2026-05-04 19:02 49.67084 10.39673 31418 ft 458 kts 302°
2026-05-04 19:03 49.68869 10.35670 31854 ft 456 kts 301°
2026-05-04 19:03 49.70667 10.31595 32248 ft 455 kts 300°
2026-05-04 19:03 49.72430 10.27585 32575 ft 455 kts 300°
2026-05-04 19:03 49.74218 10.23514 32869 ft 456 kts 300°
2026-05-04 19:04 49.75927 10.19622 33136 ft 457 kts 300°
2026-05-04 19:04 49.77697 10.15587 33408 ft 458 kts 300°
2026-05-04 19:04 49.79511 10.11446 33672 ft 459 kts 300°
2026-05-04 19:04 49.81300 10.07358 33911 ft 461 kts 300°
2026-05-04 19:05 49.84898 9.99119 33950 ft 461 kts 300°
2026-05-04 19:05 49.88475 9.90902 33950 ft 461 kts 300°
2026-05-04 19:06 49.92063 9.82634 33955 ft 461 kts 300°
2026-05-04 19:06 49.95635 9.74380 33949 ft 461 kts 300°
2026-05-04 19:07 49.99209 9.66087 33949 ft 460 kts 300°
2026-05-04 19:07 50.02705 9.57782 33956 ft 459 kts 297°
2026-05-04 19:08 50.05701 9.49067 33964 ft 456 kts 291°
2026-05-04 19:08 50.08069 9.40008 33965 ft 453 kts 285°
2026-05-04 19:09 50.09861 9.30681 33965 ft 450 kts 281°
2026-05-04 19:09 50.11472 9.21486 33961 ft 449 kts 281°
2026-05-04 19:10 50.13124 9.11999 33961 ft 451 kts 281°
2026-05-04 19:10 50.14725 9.02779 33962 ft 451 kts 281°
2026-05-04 19:11 50.16332 8.93490 33959 ft 450 kts 281°
2026-05-04 19:11 50.17948 8.84102 33957 ft 451 kts 281°
2026-05-04 19:12 50.20365 8.69971 33962 ft 450 kts 281°
2026-05-04 19:13 50.21974 8.60500 33965 ft 450 kts 281°
2026-05-04 19:13 50.23567 8.51066 33971 ft 449 kts 281°
2026-05-04 19:14 50.25155 8.41602 33974 ft 450 kts 281°
2026-05-04 19:14 50.26736 8.32142 33973 ft 450 kts 280°
2026-05-04 19:15 50.28298 8.22742 33968 ft 450 kts 280°
2026-05-04 19:15 50.29864 8.13270 33964 ft 449 kts 279°
2026-05-04 19:16 50.31414 8.03836 33976 ft 449 kts 279°
2026-05-04 19:16 50.32957 7.94393 33973 ft 449 kts 279°
2026-05-04 19:17 50.34495 7.84922 33974 ft 449 kts 279°
2026-05-04 19:17 50.36019 7.75490 33980 ft 449 kts 279°
2026-05-04 19:18 50.37546 7.65989 33986 ft 449 kts 279°
2026-05-04 19:18 50.39065 7.56476 33988 ft 449 kts 279°
2026-05-04 19:19 50.40565 7.47032 33985 ft 449 kts 279°
2026-05-04 19:19 50.42062 7.37557 33986 ft 449 kts 279°